Belleair, FL (33756)

3:10 AM EDT on September 02, 2014 (GMT -0400)
South Greenwood | Change Station
CLOSE
Current Station
Personal Weather Station
Location: Clearwater, FL
Elevation: 40 ft
Nearby Weather Stations

Elev 40 ft 27.94 °N, 82.79 °W | Updated 18 seconds ago

Clear
Clear
78.8 °F
Feels Like 82 °F
N
0.0
Wind Variable Wind from South
Gusts 0.0 mph

Today
High -- | Low -- °F
--% Chance of Precip.
Yesterday
High -- | Low -- °F
Precip. -- in
7:10 AM 7:50 PM
Waxing Crescent, 48% visible
Pressure 30.07 in
Visibility 10.0 miles
Clouds Clear
Heat Index 82 °F
Dew Point 74 °F
Humidity 86%
Rainfall 0.00 in
Snow Depth Not available.
UV 0 out of 12
Pollen 5.20 out of 12
Air Quality Not available.
Flu Activity Not available.
METAR KPIE 020653Z AUTO 05004KT 10SM CLR 27/23 A3007 RMK AO2 SLP181 T02720233

More Conditions Fewer Conditions

Pressure 30.07 in
Visibility 10.0 miles
Clouds Clear
Heat Index 82 °F
Dew Point 74 °F
Humidity 86%
Rainfall 0.00 in
Snow Depth Not available.
UV 0 out of 12
Pollen 5.20 out of 12
Air Quality Not available.
Flu Activity Not available.
METAR KPIE 020653Z AUTO 05004KT 10SM CLR 27/23 A3007 RMK AO2 SLP181 T02720233

More Conditions Fewer Conditions

10-Day Weather Forecast

Almanac

Astronomy

Sep. 02, 2014 Rise Set
Actual Time 7:10 AM EDT 7:50 PM EDT
Civil Twilight 6:46 AM EDT 8:14 PM EDT
Nautical Twilight 6:18 AM EDT 8:42 PM EDT
Astronomical Twilight 5:49 AM EDT 9:11 PM EDT
Moon 2:17 PM EDT 12:26 AM EDT
Length of Visible Light 13h 28m
Length of Day
12h 40m
Tomorrow will be 1m 37s shorter.
Waxing Crescent, 48% of the Moon is Illuminated
Today
Waxing Crescent
Sep 2
First Quarter
Sep 8
Full
Sep 15
Last Quarter
Sep 24
New

Today's Extremes

State Highs State Lows

Community

WunderPhotos

Upload Photos

1,749,589 photos uploaded!

WunderBlogs® & News

Nearby

Air Quality

  Air Quality AQ Index Pollutant
Tuesday Good
PM2.5
Tuesday Good
OZONE

Snow Depth

Station Depth Elevation
No new snow has been reported.

Earthquake Activity

City Distance Mag. Time & Date
No recent earthquake activity has been reported nearby.
Minimum magnitude displayed is 2.5.

Coastal Water Temperatures

Place Temperature
Clearwater Beach, FL 88.0 °F
Port Manatee, FL 87.1 °F
St Petersburg, FL 91.0 °F
Old Port Tampa, FL 89.1 °F
McKay Bay Entrance, FL 89.1 °F

Nearby Weather Stations